| time (UTC) | temp C | wind direction | speed KPH | gust KPH | rain 1hr cm | rain 24hr cm | rain mn cm | humidity % | barometer mb |
| 20260502130543 | 0 | 165 | 3.2 | 0.0 | 0.00 | 0.00 | 0.00 | 70 | 1016.5 |
| 20260502130110 | 0 | 165 | 1.6 | 0.0 | 0.00 | 0.00 | 0.00 | 70 | 1016.5 |
| 20260502123541 | 0 | 165 | 4.8 | 0.0 | 0.00 | 0.00 | 0.00 | 69 | 1016.4 |
| 20260502123000 | 0 | 155 | 3.2 | 0.0 | 0.00 | 0.00 | 0.00 | 70 | 1016.5 |
| 20260502122521 | 0 | 207 | 1.6 | 0.0 | 0.00 | 0.00 | 0.00 | 70 | 1016.5 |
| 20260502122039 | 0 | 207 | 3.2 | 0.0 | 0.00 | 0.00 | 0.00 | 69 | 1016.4 |
| 20260502121602 | 0 | 207 | 3.2 | 0.0 | 0.00 | 0.00 | 0.00 | 67 | 1016.5 |
| 20260502121009 | 0 | 207 | 3.2 | 0.0 | 0.00 | 0.00 | 0.00 | 64 | 1016.4 |
| 20260502120529 | 0 | 207 | 4.8 | 0.0 | 0.00 | 0.00 | 0.00 | 63 | 1016.3 |
| 20260502120105 | 1 | 207 | 6.4 | 0.0 | 0.00 | 0.00 | 0.00 | 63 | 1016.4 |
| 20260502115503 | 1 | 209 | 6.4 | 0.0 | 0.00 | 0.00 | 0.00 | 62 | 1016.3 |
| 20260502115022 | 1 | 192 | 8.0 | 0.0 | 0.00 | 0.00 | 0.00 | 62 | 1016.3 |
| 20260502114553 | 1 | 192 | 8.0 | 0.0 | 0.00 | 0.00 | 0.00 | 63 | 1016.3 |
| 20260502114105 | 1 | 223 | 4.8 | 0.0 | 0.00 | 0.00 | 0.00 | 63 | 1016.3 |
| 20260502113516 | 1 | 192 | 1.6 | 0.0 | 0.00 | 0.00 | 0.00 | 63 | 1016.5 |
| 20260502113046 | 1 | 192 | 1.6 | 0.0 | 0.00 | 0.00 | 0.00 | 62 | 1016.5 |
| 20260502112601 | 1 | 192 | 1.6 | 0.0 | 0.00 | 0.00 | 0.00 | 62 | 1016.4 |
| 20260502112019 | 1 | 192 | 1.6 | 0.0 | 0.00 | 0.00 | 0.00 | 62 | 1016.5 |
| 20260502111544 | 1 | 192 | 1.6 | 0.0 | 0.00 | 0.00 | 0.00 | 63 | 1016.4 |
| 20260502111102 | 1 | 192 | 3.2 | 0.0 | 0.00 | 0.00 | 0.00 | 62 | 1016.7 |
| 20260502110516 | 1 | 192 | 8.0 | 0.0 | 0.00 | 0.00 | 0.00 | 62 | 1016.5 |
| 20260502110042 | 1 | 192 | 9.7 | 0.0 | 0.00 | 0.00 | 0.00 | 62 | 1016.4 |
| 20260502105559 | 1 | 207 | 9.7 | 0.0 | 0.00 | 0.00 | 0.00 | 62 | 1016.6 |
| 20260502105010 | 1 | 189 | 6.4 | 0.0 | 0.00 | 0.00 | 0.00 | 62 | 1016.6 |
| 20260502104529 | 1 | 196 | 4.8 | 0.0 | 0.00 | 0.00 | 0.00 | 61 | 1016.5 |
| 20260502104051 | 1 | 209 | 4.8 | 0.0 | 0.00 | 0.00 | 0.00 | 62 | 1016.6 |
| 20260502103502 | 2 | 98 | 8.0 | 0.0 | 0.00 | 0.00 | 0.00 | 59 | 1016.6 |
| 20260502103039 | 2 | 204 | 11.3 | 0.0 | 0.00 | 0.00 | 0.00 | 57 | 1016.6 |
| 20260502102536 | 3 | 204 | 11.3 | 0.0 | 0.00 | 0.00 | 0.00 | 54 | 1016.7 |
| 20260502102103 | 3 | 188 | 11.3 | 0.0 | 0.00 | 0.00 | 0.00 | 54 | 1016.6 |
| 20260502101517 | 3 | 166 | 12.9 | 0.0 | 0.00 | 0.00 | 0.00 | 55 | 1016.6 |
| 20260502101036 | 3 | 119 | 16.1 | 0.0 | 0.00 | 0.00 | 0.00 | 56 | 1016.4 |
| 20260502100600 | 3 | 186 | 17.7 | 0.0 | 0.00 | 0.00 | 0.00 | 55 | 1016.3 |
| 20260502091532 | 3 | 180 | 20.9 | 0.0 | 0.00 | 0.00 | 0.00 | 56 | 1016.2 |
| 20260502091049 | 3 | 188 | 20.9 | 0.0 | 0.00 | 0.00 | 0.00 | 55 | 1016.1 |
| 20260502090512 | 3 | 193 | 20.9 | 0.0 | 0.00 | 0.00 | 0.00 | 54 | 1016.2 |
| 20260502071535 | 5 | 234 | 22.5 | 0.0 | 0.00 | 0.00 | 0.00 | 53 | 1017.0 |
| 20260502071048 | 5 | 211 | 22.5 | 0.0 | 0.00 | 0.00 | 0.00 | 54 | 1016.9 |
| 20260502070605 | 4 | 206 | 22.5 | 0.0 | 0.00 | 0.00 | 0.00 | 55 | 1017.0 |
| 20260502070018 | 4 | 208 | 22.5 | 0.0 | 0.00 | 0.00 | 0.00 | 56 | 1016.9 |
| 20260502065534 | 4 | 212 | 19.3 | 0.0 | 0.00 | 0.00 | 0.00 | 55 | 1017.0 |
| 20260502065050 | 5 | 202 | 19.3 | 0.0 | 0.00 | 0.00 | 0.00 | 54 | 1016.9 |
| 20260502064502 | 5 | 215 | 19.3 | 0.0 | 0.00 | 0.00 | 0.00 | 53 | 1016.9 |
| 20260502064020 | 5 | 210 | 17.7 | 0.0 | 0.00 | 0.00 | 0.00 | 53 | 1017.0 |
| 20260502063535 | 5 | 209 | 19.3 | 0.0 | 0.00 | 0.00 | 0.00 | 54 | 1016.9 |
| 20260502063057 | 5 | 199 | 19.3 | 0.0 | 0.00 | 0.00 | 0.00 | 53 | 1016.9 |
| 20260502062511 | 5 | 217 | 19.3 | 0.0 | 0.00 | 0.00 | 0.00 | 52 | 1017.0 |
| 20260502062033 | 6 | 200 | 20.9 | 0.0 | 0.00 | 0.00 | 0.00 | 50 | 1016.9 |
| 20260502061547 | 6 | 209 | 20.9 | 0.0 | 0.00 | 0.00 | 0.00 | 50 | 1016.9 |
| 20260502061005 | 6 | 215 | 20.9 | 0.0 | 0.00 | 0.00 | 0.00 | 52 | 1017.0 |
| 20260502060521 | 5 | 213 | 19.3 | 0.0 | 0.00 | 0.00 | 0.00 | 54 | 1017.0 |
| 20260502060038 | 5 | 213 | 20.9 | 0.0 | 0.00 | 0.00 | 0.00 | 54 | 1017.0 |
| 20260502055557 | 5 | 217 | 20.9 | 0.0 | 0.00 | 0.00 | 0.00 | 54 | 1017.0 |
| 20260502055011 | 5 | 208 | 22.5 | 0.0 | 0.00 | 0.00 | 0.00 | 53 | 1016.9 |
| 20260502054549 | 5 | 207 | 20.9 | 0.0 | 0.00 | 0.00 | 0.00 | 52 | 1017.0 |
| 20260502054048 | 5 | 208 | 20.9 | 0.0 | 0.00 | 0.00 | 0.00 | 54 | 1017.1 |
| 20260502053503 | 5 | 206 | 19.3 | 0.0 | 0.00 | 0.00 | 0.00 | 53 | 1017.0 |
| 20260502053025 | 5 | 200 | 19.3 | 0.0 | 0.00 | 0.00 | 0.00 | 52 | 1017.1 |
| 20260502052542 | 6 | 209 | 17.7 | 0.0 | 0.00 | 0.00 | 0.00 | 53 | 1017.0 |
| 20260502052100 | 6 | 196 | 16.1 | 0.0 | 0.00 | 0.00 | 0.00 | 52 | 1016.9 |
| 20260502051521 | 6 | 211 | 12.9 | 0.0 | 0.00 | 0.00 | 0.00 | 51 | 1016.9 |
| 20260502051039 | 6 | 203 | 11.3 | 0.0 | 0.00 | 0.00 | 0.00 | 50 | 1016.9 |
| 20260502050501 | 6 | 185 | 11.3 | 0.0 | 0.00 | 0.00 | 0.00 | 51 | 1016.9 |
| 20260502050024 | 6 | 184 | 11.3 | 0.0 | 0.00 | 0.00 | 0.00 | 51 | 1017.0 |
| 20260502045543 | 6 | 171 | 11.3 | 0.0 | 0.00 | 0.00 | 0.00 | 52 | 1017.0 |
| 20260502045057 | 6 | 181 | 11.3 | 0.0 | 0.00 | 0.00 | 0.00 | 52 | 1017.2 |
| 20260502044513 | 6 | 198 | 12.9 | 0.0 | 0.00 | 0.00 | 0.00 | 53 | 1017.2 |
| 20260502044031 | 6 | 209 | 11.3 | 0.0 | 0.00 | 0.00 | 0.00 | 53 | 1017.1 |
| 20260502043556 | 5 | 209 | 9.7 | 0.0 | 0.00 | 0.00 | 0.00 | 55 | 1017.2 |
| 20260502043010 | 5 | 225 | 6.4 | 0.0 | 0.00 | 0.00 | 0.00 | 58 | 1017.1 |
| 20260502042526 | 5 | 194 | 6.4 | 0.0 | 0.00 | 0.00 | 0.00 | 58 | 1017.1 |
| 20260502042045 | 5 | 195 | 8.0 | 0.0 | 0.00 | 0.00 | 0.00 | 58 | 1017.0 |
| 20260502041601 | 5 | 198 | 11.3 | 0.0 | 0.00 | 0.00 | 0.00 | 58 | 1017.0 |
| 20260502041014 | 5 | 198 | 11.3 | 0.0 | 0.00 | 0.00 | 0.00 | 58 | 1016.9 |
| 20260502040530 | 5 | 209 | 9.7 | 0.0 | 0.00 | 0.00 | 0.00 | 58 | 1016.8 |
| 20260502040050 | 5 | 208 | 8.0 | 0.0 | 0.00 | 0.00 | 0.00 | 59 | 1016.7 |
| 20260502035605 | 5 | 217 | 6.4 | 0.0 | 0.00 | 0.00 | 0.00 | 59 | 1016.8 |
| 20260502035019 | 5 | 132 | 4.8 | 0.0 | 0.00 | 0.00 | 0.00 | 61 | 1016.8 |
| 20260502034533 | 5 | 197 | 8.0 | 0.0 | 0.00 | 0.00 | 0.00 | 60 | 1016.8 |
| 20260502034043 | 6 | 196 | 11.3 | 0.0 | 0.00 | 0.00 | 0.00 | 58 | 1016.6 |
| 20260502033601 | 6 | 187 | 11.3 | 0.0 | 0.00 | 0.00 | 0.00 | 58 | 1016.5 |
| 20260502033010 | 6 | 186 | 9.7 | 0.0 | 0.00 | 0.00 | 0.00 | 57 | 1016.5 |
| 20260502032522 | 6 | 192 | 9.7 | 0.0 | 0.00 | 0.00 | 0.00 | 56 | 1016.5 |
| 20260502032038 | 6 | 182 | 9.7 | 0.0 | 0.00 | 0.00 | 0.00 | 54 | 1016.5 |
| 20260502031549 | 7 | 192 | 9.7 | 0.0 | 0.00 | 0.00 | 0.00 | 50 | 1016.4 |
| 20260502031101 | 8 | 210 | 9.7 | 0.0 | 0.00 | 0.00 | 0.00 | 46 | 1016.4 |
| 20260502030511 | 9 | 215 | 8.0 | 0.0 | 0.00 | 0.00 | 0.00 | 43 | 1016.2 |
| 20260502030035 | 8 | 219 | 8.0 | 0.0 | 0.00 | 0.00 | 0.00 | 42 | 1016.1 |
| 20260502025547 | 7 | 215 | 8.0 | 0.0 | 0.00 | 0.00 | 0.00 | 46 | 1016.0 |
| 20260502025102 | 8 | 225 | 8.0 | 0.0 | 0.00 | 0.00 | 0.00 | 48 | 1016.0 |
| 20260502024509 | 9 | 355 | 6.4 | 0.0 | 0.00 | 0.00 | 0.00 | 44 | 1016.0 |
| 20260502024021 | 10 | 355 | 4.8 | 0.0 | 0.00 | 0.00 | 0.00 | 42 | 1015.8 |
| 20260502023532 | 11 | 355 | 3.2 | 0.0 | 0.00 | 0.00 | 0.00 | 39 | 1016.0 |
| 20260502023056 | 12 | 355 | 4.8 | 0.0 | 0.00 | 0.00 | 0.00 | 39 | 1015.9 |
| 20260502022602 | 13 | 348 | 3.2 | 0.0 | 0.00 | 0.00 | 0.00 | 32 | 1015.9 |
| 20260502022020 | 13 | 360 | 3.2 | 0.0 | 0.00 | 0.00 | 0.00 | 33 | 1015.8 |
| 20260502021531 | 14 | 350 | 4.8 | 0.0 | 0.00 | 0.00 | 0.00 | 33 | 1015.7 |
| 20260502021044 | 15 | 5 | 4.8 | 0.0 | 0.00 | 0.00 | 0.00 | 31 | 1015.7 |
| 20260502020604 | 15 | 5 | 4.8 | 0.0 | 0.00 | 0.00 | 0.00 | 30 | 1015.8 |
| 20260502020012 | 15 | 5 | 3.2 | 0.0 | 0.00 | 0.00 | 0.00 | 30 | 1015.7 |
| 20260502015528 | 16 | 5 | 3.2 | 0.0 | 0.00 | 0.00 | 0.00 | 28 | 1015.8 |
| 20260502015043 | 16 | 5 | 4.8 | 0.0 | 0.00 | 0.00 | 0.00 | 27 | 1015.9 |
| 20260502014500 | 16 | 5 | 4.8 | 0.0 | 0.00 | 0.00 | 0.00 | 26 | 1016.1 |
| 20260502014017 | 16 | 5 | 4.8 | 0.0 | 0.00 | 0.00 | 0.00 | 23 | 1016.0 |
| 20260502013527 | 16 | 5 | 4.8 | 0.0 | 0.00 | 0.00 | 0.00 | 23 | 1016.0 |
| 20260502013048 | 16 | 13 | 4.8 | 0.0 | 0.00 | 0.00 | 0.00 | 21 | 1016.0 |
| 20260502012502 | 17 | 13 | 6.4 | 0.0 | 0.00 | 0.00 | 0.00 | 19 | 1016.1 |
| 20260502012015 | 17 | 13 | 6.4 | 0.0 | 0.00 | 0.00 | 0.00 | 19 | 1016.2 |
| 20260502011538 | 17 | 13 | 4.8 | 0.0 | 0.00 | 0.00 | 0.00 | 18 | 1016.1 |
| 20260502011059 | 17 | 17 | 4.8 | 0.0 | 0.00 | 0.00 | 0.00 | 16 | 1016.1 |
| 20260502010510 | 17 | 17 | 4.8 | 0.0 | 0.00 | 0.00 | 0.00 | 16 | 1016.1 |
| 20260502010026 | 17 | 17 | 6.4 | 0.0 | 0.00 | 0.00 | 0.00 | 15 | 1016.3 |
| 20260502005542 | 17 | 11 | 4.8 | 0.0 | 0.00 | 0.00 | 0.00 | 14 | 1016.2 |
| 20260502005059 | 17 | 11 | 4.8 | 0.0 | 0.00 | 0.00 | 0.00 | 14 | 1016.3 |
| 20260502004513 | 17 | 51 | 3.2 | 0.0 | 0.00 | 0.00 | 0.00 | 16 | 1016.3 |
| 20260502004031 | 17 | 51 | 3.2 | 0.0 | 0.00 | 0.00 | 0.00 | 14 | 1016.2 |
| 20260502003548 | 17 | 51 | 4.8 | 0.0 | 0.00 | 0.00 | 0.00 | 17 | 1016.2 |
| 20260502003106 | 17 | 51 | 6.4 | 0.0 | 0.00 | 0.00 | 0.00 | 16 | 1016.2 |
| 20260502002518 | 17 | 39 | 6.4 | 0.0 | 0.00 | 0.00 | 0.00 | 16 | 1016.3 |
| 20260502002032 | 17 | 39 | 6.4 | 0.0 | 0.00 | 0.00 | 0.00 | 16 | 1016.3 |
| 20260502001549 | 17 | 35 | 6.4 | 0.0 | 0.00 | 0.00 | 0.00 | 14 | 1016.4 |
| 20260502001001 | 17 | 22 | 6.4 | 0.0 | 0.00 | 0.00 | 0.00 | 14 | 1016.5 |
| 20260502000516 | 17 | 22 | 6.4 | 0.0 | 0.00 | 0.00 | 0.00 | 16 | 1016.5 |
| 20260502000035 | 17 | 36 | 6.4 | 0.0 | 0.00 | 0.00 | 0.00 | 15 | 1016.5 |
| 20260501235551 | 17 | 33 | 8.0 | 0.0 | 0.00 | 0.00 | 0.00 | 15 | 1016.6 |
| 20260501235107 | 17 | 38 | 8.0 | 0.0 | 0.00 | 0.00 | 0.00 | 17 | 1016.8 |
| 20260501234513 | 17 | 37 | 11.3 | 0.0 | 0.00 | 0.00 | 0.00 | 17 | 1016.8 |
| 20260501234030 | 17 | 33 | 11.3 | 0.0 | 0.00 | 0.00 | 0.00 | 16 | 1016.8 |
| 20260501233544 | 17 | 36 | 9.7 | 0.0 | 0.00 | 0.00 | 0.00 | 16 | 1017.0 |
| 20260501233103 | 17 | 342 | 6.4 | 0.0 | 0.00 | 0.00 | 0.00 | 16 | 1016.9 |
| 20260501232513 | 17 | 34 | 3.2 | 0.0 | 0.00 | 0.00 | 0.00 | 18 | 1016.9 |
| 20260501232028 | 17 | 34 | 3.2 | 0.0 | 0.00 | 0.00 | 0.00 | 17 | 1016.9 |
| 20260501231542 | 17 | 30 | 3.2 | 0.0 | 0.00 | 0.00 | 0.00 | 18 | 1017.0 |
| 20260501231059 | 17 | 59 | 3.2 | 0.0 | 0.00 | 0.00 | 0.00 | 18 | 1017.0 |
| 20260501230510 | 17 | 54 | 4.8 | 0.0 | 0.00 | 0.00 | 0.00 | 19 | 1017.1 |
| 20260501230028 | 17 | 97 | 6.4 | 0.0 | 0.00 | 0.00 | 0.00 | 20 | 1017.1 |
| 20260501225543 | 16 | 55 | 8.0 | 0.0 | 0.00 | 0.00 | 0.00 | 19 | 1017.1 |
| 20260501225058 | 16 | 26 | 9.7 | 0.0 | 0.00 | 0.00 | 0.00 | 19 | 1017.2 |
| 20260501224505 | 17 | 30 | 8.0 | 0.0 | 0.00 | 0.00 | 0.00 | 18 | 1017.4 |
| 20260501224024 | 17 | 309 | 6.4 | 0.0 | 0.00 | 0.00 | 0.00 | 19 | 1017.4 |
| 20260501223544 | 17 | 32 | 6.4 | 0.0 | 0.00 | 0.00 | 0.00 | 19 | 1017.5 |
| 20260501223011 | 17 | 126 | 6.4 | 0.0 | 0.00 | 0.00 | 0.00 | 18 | 1017.5 |
| 20260501222520 | 16 | 106 | 8.0 | 0.0 | 0.00 | 0.00 | 0.00 | 19 | 1017.5 |
| 20260501222037 | 16 | 67 | 8.0 | 0.0 | 0.00 | 0.00 | 0.00 | 18 | 1017.6 |
| 20260501221555 | 16 | 65 | 8.0 | 0.0 | 0.00 | 0.00 | 0.00 | 19 | 1017.7 |
| 20260501221014 | 16 | 48 | 8.0 | 0.0 | 0.00 | 0.00 | 0.00 | 20 | 1017.9 |
| 20260501220530 | 16 | 48 | 8.0 | 0.0 | 0.00 | 0.00 | 0.00 | 18 | 1017.8 |
| 20260501220049 | 17 | 53 | 6.4 | 0.0 | 0.00 | 0.00 | 0.00 | 20 | 1017.9 |
| 20260501215502 | 17 | 261 | 4.8 | 0.0 | 0.00 | 0.00 | 0.00 | 20 | 1018.0 |
| 20260501215025 | 16 | 315 | 6.4 | 0.0 | 0.00 | 0.00 | 0.00 | 21 | 1018.1 |
| 20260501214540 | 16 | 339 | 8.0 | 0.0 | 0.00 | 0.00 | 0.00 | 20 | 1018.2 |
| 20260501214057 | 16 | 350 | 8.0 | 0.0 | 0.00 | 0.00 | 0.00 | 21 | 1018.4 |
| 20260501213516 | 16 | 72 | 8.0 | 0.0 | 0.00 | 0.00 | 0.00 | 19 | 1018.5 |
| 20260501213030 | 16 | 322 | 9.7 | 0.0 | 0.00 | 0.00 | 0.00 | 18 | 1018.5 |
| 20260501212545 | 16 | 24 | 9.7 | 0.0 | 0.00 | 0.00 | 0.00 | 20 | 1018.4 |
| 20260501212102 | 16 | 5 | 11.3 | 0.0 | 0.00 | 0.00 | 0.00 | 21 | 1018.4 |
| 20260501211516 | 16 | 338 | 9.7 | 0.0 | 0.00 | 0.00 | 0.00 | 21 | 1018.5 |
| 20260501211029 | 16 | 11 | 6.4 | 0.0 | 0.00 | 0.00 | 0.00 | 23 | 1018.5 |
| 20260501210549 | 16 | 46 | 6.4 | 0.0 | 0.00 | 0.00 | 0.00 | 22 | 1018.7 |
| 20260501210105 | 16 | 36 | 6.4 | 0.0 | 0.00 | 0.00 | 0.00 | 22 | 1018.7 |
| 20260501205522 | 15 | 67 | 8.0 | 0.0 | 0.00 | 0.00 | 0.00 | 22 | 1018.8 |
| 20260501205038 | 15 | 35 | 9.7 | 0.0 | 0.00 | 0.00 | 0.00 | 23 | 1018.8 |
| 20260501204609 | 15 | 39 | 11.3 | 0.0 | 0.00 | 0.00 | 0.00 | 20 | 1018.8 |
| 20260501204006 | 15 | 19 | 9.7 | 0.0 | 0.00 | 0.00 | 0.00 | 22 | 1018.9 |
| 20260501203524 | 15 | 360 | 9.7 | 0.0 | 0.00 | 0.00 | 0.00 | 22 | 1018.9 |
| 20260501203054 | 15 | 300 | 8.0 | 0.0 | 0.00 | 0.00 | 0.00 | 21 | 1018.9 |
| 20260501202600 | 15 | 30 | 6.4 | 0.0 | 0.00 | 0.00 | 0.00 | 22 | 1019.0 |
| 20260501202014 | 15 | 5 | 4.8 | 0.0 | 0.00 | 0.00 | 0.00 | 21 | 1019.0 |
| 20260501201529 | 15 | 144 | 6.4 | 0.0 | 0.00 | 0.00 | 0.00 | 19 | 1019.0 |
| 20260501201047 | 15 | 50 | 6.4 | 0.0 | 0.00 | 0.00 | 0.00 | 20 | 1019.1 |
| 20260501200604 | 15 | 79 | 6.4 | 0.0 | 0.00 | 0.00 | 0.00 | 19 | 1019.2 |
| 20260501200015 | 15 | 98 | 8.0 | 0.0 | 0.00 | 0.00 | 0.00 | 21 | 1019.4 |
| 20260501195528 | 14 | 37 | 8.0 | 0.0 | 0.00 | 0.00 | 0.00 | 20 | 1019.3 |
| 20260501195045 | 15 | 43 | 6.4 | 0.0 | 0.00 | 0.00 | 0.00 | 20 | 1019.4 |
| 20260501194558 | 14 | 88 | 4.8 | 0.0 | 0.00 | 0.00 | 0.00 | 21 | 1019.5 |
| 20260501194015 | 14 | 343 | 8.0 | 0.0 | 0.00 | 0.00 | 0.00 | 19 | 1019.6 |
| 20260501193539 | 14 | 60 | 8.0 | 0.0 | 0.00 | 0.00 | 0.00 | 21 | 1019.7 |
| 20260501193053 | 14 | 40 | 6.4 | 0.0 | 0.00 | 0.00 | 0.00 | 20 | 1019.7 |
| 20260501192509 | 14 | 44 | 4.8 | 0.0 | 0.00 | 0.00 | 0.00 | 22 | 1019.7 |
| 20260501192028 | 14 | 259 | 6.4 | 0.0 | 0.00 | 0.00 | 0.00 | 20 | 1019.8 |
| 20260501191543 | 14 | 348 | 8.0 | 0.0 | 0.00 | 0.00 | 0.00 | 20 | 1019.8 |
| 20260501191103 | 13 | 11 | 6.4 | 0.0 | 0.00 | 0.00 | 0.00 | 23 | 1019.9 |
| 20260501190512 | 13 | 58 | 6.4 | 0.0 | 0.00 | 0.00 | 0.00 | 23 | 1019.9 |
| 20260501190030 | 13 | 24 | 6.4 | 0.0 | 0.00 | 0.00 | 0.00 | 23 | 1020.0 |
| 20260501185552 | 13 | 30 | 6.4 | 0.0 | 0.00 | 0.00 | 0.00 | 21 | 1020.0 |
| 20260501185008 | 13 | 42 | 6.4 | 0.0 | 0.00 | 0.00 | 0.00 | 21 | 1020.0 |
| 20260501184526 | 13 | 355 | 6.4 | 0.0 | 0.00 | 0.00 | 0.00 | 19 | 1020.1 |
| 20260501184044 | 13 | 79 | 8.0 | 0.0 | 0.00 | 0.00 | 0.00 | 19 | 1020.1 |
| 20260501183558 | 13 | 60 | 8.0 | 0.0 | 0.00 | 0.00 | 0.00 | 21 | 1020.1 |
| 20260501183010 | 13 | 53 | 4.8 | 0.0 | 0.00 | 0.00 | 0.00 | 21 | 1020.1 |
| 20260501182526 | 13 | 59 | 6.4 | 0.0 | 0.00 | 0.00 | 0.00 | 23 | 1020.2 |
| 20260501182044 | 13 | 74 | 6.4 | 0.0 | 0.00 | 0.00 | 0.00 | 21 | 1020.3 |
| 20260501181621 | 13 | 34 | 6.4 | 0.0 | 0.00 | 0.00 | 0.00 | 20 | 1020.4 |
| 20260501181014 | 13 | 49 | 4.8 | 0.0 | 0.00 | 0.00 | 0.00 | 20 | 1020.4 |
| 20260501180531 | 13 | 88 | 4.8 | 0.0 | 0.00 | 0.00 | 0.00 | 19 | 1020.4 |
| 20260501180056 | 13 | 87 | 3.2 | 0.0 | 0.00 | 0.00 | 0.00 | 20 | 1020.5 |
| 20260501175600 | 13 | 71 | 3.2 | 0.0 | 0.00 | 0.00 | 0.00 | 23 | 1020.6 |
| 20260501175014 | 12 | 25 | 4.8 | 0.0 | 0.00 | 0.00 | 0.00 | 19 | 1020.6 |
| 20260501174530 | 12 | 57 | 3.2 | 0.0 | 0.00 | 0.00 | 0.00 | 28 | 1020.8 |
| 20260501174045 | 12 | 45 | 3.2 | 0.0 | 0.00 | 0.00 | 0.00 | 25 | 1020.8 |
| 20260501173601 | 12 | 53 | 4.8 | 0.0 | 0.00 | 0.00 | 0.00 | 25 | 1020.9 |
| 20260501173017 | 12 | 73 | 6.4 | 0.0 | 0.00 | 0.00 | 0.00 | 26 | 1021.0 |
| 20260501172528 | 12 | 74 | 4.8 | 0.0 | 0.00 | 0.00 | 0.00 | 27 | 1021.1 |
| 20260501172043 | 12 | 64 | 4.8 | 0.0 | 0.00 | 0.00 | 0.00 | 28 | 1021.1 |
| 20260501171604 | 11 | 67 | 4.8 | 0.0 | 0.00 | 0.00 | 0.00 | 28 | 1021.1 |
| 20260501171007 | 11 | 67 | 6.4 | 0.0 | 0.00 | 0.00 | 0.00 | 28 | 1021.3 |
| 20260501170526 | 11 | 94 | 6.4 | 0.0 | 0.00 | 0.00 | 0.00 | 28 | 1021.4 |
| 20260501170040 | 11 | 14 | 4.8 | 0.0 | 0.00 | 0.00 | 0.00 | 28 | 1021.4 |
| 20260501165554 | 11 | 16 | 3.2 | 0.0 | 0.00 | 0.00 | 0.00 | 26 | 1021.5 |
| 20260501165006 | 11 | 104 | 3.2 | 0.0 | 0.00 | 0.00 | 0.00 | 28 | 1021.4 |
| 20260501164523 | 11 | 104 | 4.8 | 0.0 | 0.00 | 0.00 | 0.00 | 29 | 1021.6 |
| 20260501164034 | 11 | 123 | 4.8 | 0.0 | 0.00 | 0.00 | 0.00 | 31 | 1021.5 |
| 20260501163551 | 11 | 132 | 4.8 | 0.0 | 0.00 | 0.00 | 0.00 | 33 | 1021.4 |
| 20260501163104 | 10 | 119 | 6.4 | 0.0 | 0.00 | 0.00 | 0.00 | 31 | 1021.4 |
| 20260501162516 | 10 | 167 | 6.4 | 0.0 | 0.00 | 0.00 | 0.00 | 33 | 1021.5 |
| 20260501162036 | 10 | 186 | 6.4 | 0.0 | 0.00 | 0.00 | 0.00 | 33 | 1021.7 |
| 20260501161553 | 10 | 204 | 6.4 | 0.0 | 0.00 | 0.00 | 0.00 | 33 | 1021.7 |
| 20260501161010 | 10 | 113 | 8.0 | 0.0 | 0.00 | 0.00 | 0.00 | 35 | 1021.7 |
| 20260501160525 | 10 | 152 | 9.7 | 0.0 | 0.00 | 0.00 | 0.00 | 34 | 1021.9 |
| 20260501160047 | 9 | 175 | 9.7 | 0.0 | 0.00 | 0.00 | 0.00 | 36 | 1022.0 |
| 20260501155602 | 9 | 173 | 11.3 | 0.0 | 0.00 | 0.00 | 0.00 | 36 | 1022.0 |
| 20260501155013 | 8 | 192 | 11.3 | 0.0 | 0.00 | 0.00 | 0.00 | 39 | 1022.0 |
| 20260501154529 | 8 | 189 | 11.3 | 0.0 | 0.00 | 0.00 | 0.00 | 39 | 1021.9 |
| 20260501154049 | 8 | 186 | 12.9 | 0.0 | 0.00 | 0.00 | 0.00 | 39 | 1022.0 |
| 20260501153503 | 8 | 199 | 12.9 | 0.0 | 0.00 | 0.00 | 0.00 | 43 | 1022.1 |
| 20260501153018 | 7 | 202 | 14.5 | 0.0 | 0.00 | 0.00 | 0.00 | 47 | 1022.1 |
| 20260501152533 | 7 | 182 | 14.5 | 0.0 | 0.00 | 0.00 | 0.00 | 46 | 1022.1 |
| 20260501152056 | 7 | 198 | 16.1 | 0.0 | 0.00 | 0.00 | 0.00 | 48 | 1022.2 |
| 20260501151511 | 6 | 196 | 17.7 | 0.0 | 0.00 | 0.00 | 0.00 | 49 | 1022.3 |
| 20260501151023 | 6 | 199 | 16.1 | 0.0 | 0.00 | 0.00 | 0.00 | 50 | 1022.2 |
| 20260501150540 | 6 | 198 | 16.1 | 0.0 | 0.00 | 0.00 | 0.00 | 52 | 1022.2 |
| 20260501150058 | 6 | 195 | 16.1 | 0.0 | 0.00 | 0.00 | 0.00 | 51 | 1022.2 |
| 20260501145516 | 5 | 189 | 16.1 | 0.0 | 0.00 | 0.00 | 0.00 | 53 | 1022.3 |
| 20260501145029 | 5 | 209 | 16.1 | 0.0 | 0.00 | 0.00 | 0.00 | 54 | 1022.3 |
| 20260501144558 | 5 | 213 | 14.5 | 0.0 | 0.00 | 0.00 | 0.00 | 54 | 1022.3 |
| 20260501144002 | 5 | 201 | 12.9 | 0.0 | 0.00 | 0.00 | 0.00 | 56 | 1022.3 |
| 20260501143520 | 5 | 210 | 12.9 | 0.0 | 0.00 | 0.00 | 0.00 | 57 | 1022.6 |
| 20260501143037 | 4 | 192 | 12.9 | 0.0 | 0.00 | 0.00 | 0.00 | 57 | 1022.5 |
| 20260501142552 | 4 | 191 | 12.9 | 0.0 | 0.00 | 0.00 | 0.00 | 57 | 1022.4 |
| 20260501142005 | 3 | 188 | 12.9 | 0.0 | 0.00 | 0.00 | 0.00 | 58 | 1022.5 |